owner,sensor,date,latitude,longitude,vertical_datum,sea_water_practical_salinity,qcFlag 
TABS,ioos:station:wmo:42043:1,2015-09-15T02:00:00Z,28.9818,-94.9186,2.0,33.02,11111222 
TABS,ioos:station:wmo:42043:1,2015-09-15T02:30:00Z,28.9818,-94.9186,2.0,33.1,11111222 
TABS,ioos:station:wmo:42043:1,2015-09-15T03:00:00Z,28.9818,-94.9186,2.0,33.22,11111222 
TABS,ioos:station:wmo:42043:1,2015-09-15T03:30:00Z,28.9818,-94.9186,2.0,33.33,11111222 
TABS,ioos:station:wmo:42043:1,2015-09-15T04:00:00Z,28.9818,-94.9186,2.0,33.37,11111222 
TABS,ioos:station:wmo:42043:1,2015-09-15T04:30:00Z,28.9818,-94.9186,2.0,33.39,11111222 
TABS,ioos:station:wmo:42043:1,2015-09-15T05:00:00Z,28.9818,-94.9186,2.0,33.38,11111222 
TABS,ioos:station:wmo:42043:1,2015-09-15T05:30:00Z,28.9818,-94.9186,2.0,33.33,11111222 
TABS,ioos:station:wmo:42043:1,2015-09-15T06:00:00Z,28.9818,-94.9186,2.0,33.19,11111222 
TABS,ioos:station:wmo:42043:1,2015-09-15T06:30:00Z,28.9818,-94.9186,2.0,33.08,11111222 
TABS,ioos:station:wmo:42043:1,2015-09-15T07:00:00Z,28.9818,-94.9186,2.0,33.04,11111222 
TABS,ioos:station:wmo:42043:1,2015-09-15T07:30:00Z,28.9818,-94.9186,2.0,33.01,11111222 
TABS,ioos:station:wmo:42043:1,2015-09-15T08:00:00Z,28.9818,-94.9186,2.0,33.0,11111222 
TABS,ioos:station:wmo:42043:1,2015-09-15T08:30:00Z,28.9818,-94.9186,2.0,33.02,11111222 
TABS,ioos:station:wmo:42043:1,2015-09-15T09:00:00Z,28.9818,-94.9186,2.0,33.04,11111222 
TABS,ioos:station:wmo:42043:1,2015-09-15T09:30:00Z,28.9818,-94.9186,2.0,33.05,11111222 
TABS,ioos:station:wmo:42043:1,2015-09-15T10:00:00Z,28.9818,-94.9186,2.0,33.06,11111222 
TABS,ioos:station:wmo:42043:1,2015-09-15T10:30:00Z,28.9818,-94.9186,2.0,32.96,11111222 
TABS,ioos:station:wmo:42043:1,2015-09-15T11:00:00Z,28.9818,-94.9186,2.0,33.0,11111222 
TABS,ioos:station:wmo:42043:1,2015-09-15T11:30:00Z,28.9818,-94.9186,2.0,33.04,11111222 
TABS,ioos:station:wmo:42043:1,2015-09-15T12:00:00Z,28.9818,-94.9186,2.0,33.13,11111222 
TABS,ioos:station:wmo:42043:1,2015-09-15T12:30:00Z,28.9818,-94.9186,2.0,33.2,11111222 
TABS,ioos:station:wmo:42043:1,2015-09-15T13:00:00Z,28.9818,-94.9186,2.0,33.26,11111222 
TABS,ioos:station:wmo:42043:1,2015-09-15T13:30:00Z,28.9818,-94.9186,2.0,33.29,11111222 
TABS,ioos:station:wmo:42043:1,2015-09-15T14:00:00Z,28.9818,-94.9186,2.0,32.92,11111222 
TABS,ioos:station:wmo:42043:1,2015-09-15T14:30:00Z,28.9818,-94.9186,2.0,32.84,11111222 
TABS,ioos:station:wmo:42043:1,2015-09-15T15:00:00Z,28.9818,-94.9186,2.0,32.83,11111222 
TABS,ioos:station:wmo:42043:1,2015-09-15T15:30:00Z,28.9818,-94.9186,2.0,32.83,11111222 
TABS,ioos:station:wmo:42043:1,2015-09-15T16:00:00Z,28.9818,-94.9186,2.0,32.8,11111222 
TABS,ioos:station:wmo:42043:1,2015-09-15T16:30:00Z,28.9818,-94.9186,2.0,32.79,11111222 
TABS,ioos:station:wmo:42043:1,2015-09-15T17:00:00Z,28.9818,-94.9186,2.0,32.75,11111222 
TABS,ioos:station:wmo:42043:1,2015-09-15T17:30:00Z,28.9818,-94.9186,2.0,32.75,11111222 
TABS,ioos:station:wmo:42043:1,2015-09-15T18:00:00Z,28.9818,-94.9186,2.0,32.59,11111222 
TABS,ioos:station:wmo:42043:1,2015-09-15T18:30:00Z,28.9818,-94.9186,2.0,32.55,11111222 
TABS,ioos:station:wmo:42043:1,2015-09-15T19:00:00Z,28.9818,-94.9186,2.0,32.56,11111222 
TABS,ioos:station:wmo:42043:1,2015-09-15T19:30:00Z,28.9818,-94.9186,2.0,32.56,11111222 
TABS,ioos:station:wmo:42043:1,2015-09-15T20:00:00Z,28.9818,-94.9186,2.0,32.55,11111222 
TABS,ioos:station:wmo:42043:1,2015-09-15T20:30:00Z,28.9818,-94.9186,2.0,32.48,11111222 
TABS,ioos:station:wmo:42043:1,2015-09-15T21:00:00Z,28.9818,-94.9186,2.0,32.47,11111222 
TABS,ioos:station:wmo:42043:1,2015-09-15T21:30:00Z,28.9818,-94.9186,2.0,32.39,11111222 
TABS,ioos:station:wmo:42043:1,2015-09-15T22:00:00Z,28.9818,-94.9186,2.0,32.3,11111222 
TABS,ioos:station:wmo:42043:1,2015-09-15T22:30:00Z,28.9818,-94.9186,2.0,32.28,11111222 
TABS,ioos:station:wmo:42043:1,2015-09-15T23:00:00Z,28.9818,-94.9186,2.0,32.19,11111222 
TABS,ioos:station:wmo:42043:1,2015-09-15T23:30:00Z,28.9818,-94.9186,2.0,31.9,11111222 
TABS,ioos:station:wmo:42043:1,2015-09-16T00:00:00Z,28.9818,-94.9186,2.0,31.86,11111222 
TABS,ioos:station:wmo:42043:1,2015-09-16T00:30:00Z,28.9818,-94.9186,2.0,31.81,11111222 
TABS,ioos:station:wmo:42043:1,2015-09-16T01:00:00Z,28.9818,-94.9186,2.0,31.76,11111222 
TABS,ioos:station:wmo:42043:1,2015-09-16T01:30:00Z,28.9818,-94.9186,2.0,31.79,11111222 
TABS,ioos:station:wmo:42043:1,2015-09-16T02:00:00Z,28.9818,-94.9186,2.0,31.51,11111222 
TABS,ioos:station:wmo:42043:1,2015-09-16T02:30:00Z,28.9818,-94.9186,2.0,31.35,11111222 
TABS,ioos:station:wmo:42043:1,2015-09-16T03:00:00Z,28.9818,-94.9186,2.0,31.17,11111222 
TABS,ioos:station:wmo:42043:1,2015-09-16T03:30:00Z,28.9818,-94.9186,2.0,31.01,11111222 
TABS,ioos:station:wmo:42043:1,2015-09-16T04:00:00Z,28.9818,-94.9186,2.0,30.9,11111222 
TABS,ioos:station:wmo:42043:1,2015-09-16T04:30:00Z,28.9818,-94.9186,2.0,30.89,11111222 
TABS,ioos:station:wmo:42043:1,2015-09-16T05:00:00Z,28.9818,-94.9186,2.0,30.87,11111222 
TABS,ioos:station:wmo:42043:1,2015-09-16T05:30:00Z,28.9818,-94.9186,2.0,30.89,11111222 
TABS,ioos:station:wmo:42043:1,2015-09-16T06:00:00Z,28.9818,-94.9186,2.0,30.87,11111222 
TABS,ioos:station:wmo:42043:1,2015-09-16T06:30:00Z,28.9818,-94.9186,2.0,30.9,11111222 
TABS,ioos:station:wmo:42043:1,2015-09-16T07:00:00Z,28.9818,-94.9186,2.0,31.06,11111222 
TABS,ioos:station:wmo:42043:1,2015-09-16T07:30:00Z,28.9818,-94.9186,2.0,31.13,11111222 
TABS,ioos:station:wmo:42043:1,2015-09-16T08:00:00Z,28.9818,-94.9186,2.0,31.14,11111222 
TABS,ioos:station:wmo:42043:1,2015-09-16T08:30:00Z,28.9818,-94.9186,2.0,31.21,11111222 
TABS,ioos:station:wmo:42043:1,2015-09-16T09:00:00Z,28.9818,-94.9186,2.0,31.28,11111222 
TABS,ioos:station:wmo:42043:1,2015-09-16T09:30:00Z,28.9818,-94.9186,2.0,31.42,11111222 
TABS,ioos:station:wmo:42043:1,2015-09-16T10:00:00Z,28.9818,-94.9186,2.0,31.44,11111222 
TABS,ioos:station:wmo:42043:1,2015-09-16T10:30:00Z,28.9818,-94.9186,2.0,31.44,11111222 
TABS,ioos:station:wmo:42043:1,2015-09-16T11:00:00Z,28.9818,-94.9186,2.0,31.41,11111222 
TABS,ioos:station:wmo:42043:1,2015-09-16T11:30:00Z,28.9818,-94.9186,2.0,31.36,11111222 
TABS,ioos:station:wmo:42043:1,2015-09-16T12:00:00Z,28.9818,-94.9186,2.0,31.38,11111222 
TABS,ioos:station:wmo:42043:1,2015-09-16T12:30:00Z,28.9818,-94.9186,2.0,31.46,11111222 
TABS,ioos:station:wmo:42043:1,2015-09-16T13:00:00Z,28.9818,-94.9186,2.0,31.55,11111222 
TABS,ioos:station:wmo:42043:1,2015-09-16T13:30:00Z,28.9818,-94.9186,2.0,31.63,11111222 
TABS,ioos:station:wmo:42043:1,2015-09-16T14:00:00Z,28.9818,-94.9186,2.0,31.65,11111222 
TABS,ioos:station:wmo:42043:1,2015-09-16T14:30:00Z,28.9818,-94.9186,2.0,31.65,11111222 
TABS,ioos:station:wmo:42043:1,2015-09-16T15:00:00Z,28.9818,-94.9186,2.0,31.62,11111222 
TABS,ioos:station:wmo:42043:1,2015-09-16T15:30:00Z,28.9818,-94.9186,2.0,31.5,11111222 
TABS,ioos:station:wmo:42043:1,2015-09-16T16:00:00Z,28.9818,-94.9186,2.0,31.44,11111222 
TABS,ioos:station:wmo:42043:1,2015-09-16T16:30:00Z,28.9818,-94.9186,2.0,31.43,11111222 
TABS,ioos:station:wmo:42043:1,2015-09-16T17:00:00Z,28.9818,-94.9186,2.0,31.56,11111222 
TABS,ioos:station:wmo:42043:1,2015-09-16T17:30:00Z,28.9818,-94.9186,2.0,31.61,11111222 
TABS,ioos:station:wmo:42043:1,2015-09-16T18:00:00Z,28.9818,-94.9186,2.0,31.73,11111222 
TABS,ioos:station:wmo:42043:1,2015-09-16T18:30:00Z,28.9818,-94.9186,2.0,31.71,11111222 
TABS,ioos:station:wmo:42043:1,2015-09-16T19:00:00Z,28.9818,-94.9186,2.0,31.72,11111222 
TABS,ioos:station:wmo:42043:1,2015-09-16T19:30:00Z,28.9818,-94.9186,2.0,31.75,11111222 
TABS,ioos:station:wmo:42043:1,2015-09-16T20:00:00Z,28.9818,-94.9186,2.0,31.78,11111222 
TABS,ioos:station:wmo:42043:1,2015-09-16T20:30:00Z,28.9818,-94.9186,2.0,31.86,11111222 
TABS,ioos:station:wmo:42043:1,2015-09-16T21:00:00Z,28.9818,-94.9186,2.0,31.95,11111222 
TABS,ioos:station:wmo:42043:1,2015-09-16T21:30:00Z,28.9818,-94.9186,2.0,32.24,11111222 
TABS,ioos:station:wmo:42043:1,2015-09-16T22:00:00Z,28.9818,-94.9186,2.0,32.04,11111222 
TABS,ioos:station:wmo:42043:1,2015-09-16T22:30:00Z,28.9818,-94.9186,2.0,31.85,11111222 
TABS,ioos:station:wmo:42043:1,2015-09-16T23:00:00Z,28.9818,-94.9186,2.0,31.92,11111222 
TABS,ioos:station:wmo:42043:1,2015-09-16T23:30:00Z,28.9818,-94.9186,2.0,31.78,11111222 
TABS,ioos:station:wmo:42043:1,2015-09-17T00:00:00Z,28.9818,-94.9186,2.0,31.65,11111222 
TABS,ioos:station:wmo:42043:1,2015-09-17T00:30:00Z,28.9818,-94.9186,2.0,31.57,11111222 
TABS,ioos:station:wmo:42043:1,2015-09-17T01:00:00Z,28.9818,-94.9186,2.0,31.46,11111222 
TABS,ioos:station:wmo:42043:1,2015-09-17T01:30:00Z,28.9818,-94.9186,2.0,31.41,11111222 
TABS,ioos:station:wmo:42043:1,2015-09-17T02:00:00Z,28.9818,-94.9186,2.0,31.29,11111222 
TABS,ioos:station:wmo:42043:1,2015-09-17T02:30:00Z,28.9818,-94.9186,2.0,31.24,11111222 
TABS,ioos:station:wmo:42043:1,2015-09-17T03:00:00Z,28.9818,-94.9186,2.0,31.26,11111222 
TABS,ioos:station:wmo:42043:1,2015-09-17T03:30:00Z,28.9818,-94.9186,2.0,31.12,11111222 
TABS,ioos:station:wmo:42043:1,2015-09-17T04:00:00Z,28.9818,-94.9186,2.0,31.08,11111222 
TABS,ioos:station:wmo:42043:1,2015-09-17T04:30:00Z,28.9818,-94.9186,2.0,31.0,11111222 
TABS,ioos:station:wmo:42043:1,2015-09-17T05:00:00Z,28.9818,-94.9186,2.0,31.16,11111222 
TABS,ioos:station:wmo:42043:1,2015-09-17T05:30:00Z,28.9818,-94.9186,2.0,31.12,11111222 
TABS,ioos:station:wmo:42043:1,2015-09-17T06:00:00Z,28.9818,-94.9186,2.0,30.95,11111222 
TABS,ioos:station:wmo:42043:1,2015-09-17T06:30:00Z,28.9818,-94.9186,2.0,30.8,11111222 
TABS,ioos:station:wmo:42043:1,2015-09-17T07:00:00Z,28.9818,-94.9186,2.0,30.7,11111222 
TABS,ioos:station:wmo:42043:1,2015-09-17T07:30:00Z,28.9818,-94.9186,2.0,30.76,11111222 
TABS,ioos:station:wmo:42043:1,2015-09-17T08:00:00Z,28.9818,-94.9186,2.0,30.96,11111222 
TABS,ioos:station:wmo:42043:1,2015-09-17T08:30:00Z,28.9818,-94.9186,2.0,31.23,11111222 
TABS,ioos:station:wmo:42043:1,2015-09-17T09:00:00Z,28.9818,-94.9186,2.0,30.83,11111222 
TABS,ioos:station:wmo:42043:1,2015-09-17T09:30:00Z,28.9818,-94.9186,2.0,30.65,11111222 
TABS,ioos:station:wmo:42043:1,2015-09-17T10:00:00Z,28.9818,-94.9186,2.0,30.45,11111222 
TABS,ioos:station:wmo:42043:1,2015-09-17T10:30:00Z,28.9818,-94.9186,2.0,30.08,11111222 
TABS,ioos:station:wmo:42043:1,2015-09-17T11:00:00Z,28.9818,-94.9186,2.0,30.11,11111222 
TABS,ioos:station:wmo:42043:1,2015-09-17T11:30:00Z,28.9818,-94.9186,2.0,30.09,11111222 
TABS,ioos:station:wmo:42043:1,2015-09-17T12:00:00Z,28.9818,-94.9186,2.0,29.89,11111222 
TABS,ioos:station:wmo:42043:1,2015-09-17T12:30:00Z,28.9818,-94.9186,2.0,29.71,11111222 
TABS,ioos:station:wmo:42043:1,2015-09-17T13:00:00Z,28.9818,-94.9186,2.0,29.69,11111222 
TABS,ioos:station:wmo:42043:1,2015-09-17T13:30:00Z,28.9818,-94.9186,2.0,29.7,11111222 
TABS,ioos:station:wmo:42043:1,2015-09-17T14:00:00Z,28.9818,-94.9186,2.0,29.71,11111222 
TABS,ioos:station:wmo:42043:1,2015-09-17T14:30:00Z,28.9818,-94.9186,2.0,29.74,11111222 
TABS,ioos:station:wmo:42043:1,2015-09-17T15:00:00Z,28.9818,-94.9186,2.0,29.75,11111222 
TABS,ioos:station:wmo:42043:1,2015-09-17T15:30:00Z,28.9818,-94.9186,2.0,29.92,11111222 
TABS,ioos:station:wmo:42043:1,2015-09-17T16:00:00Z,28.9818,-94.9186,2.0,30.63,11111222 
TABS,ioos:station:wmo:42043:1,2015-09-17T16:30:00Z,28.9818,-94.9186,2.0,31.12,11111222 
TABS,ioos:station:wmo:42043:1,2015-09-17T17:00:00Z,28.9818,-94.9186,2.0,31.14,11111222 
TABS,ioos:station:wmo:42043:1,2015-09-17T17:30:00Z,28.9818,-94.9186,2.0,31.22,11111222 
TABS,ioos:station:wmo:42043:1,2015-09-17T18:00:00Z,28.9818,-94.9186,2.0,31.27,11111222 
TABS,ioos:station:wmo:42043:1,2015-09-17T18:30:00Z,28.9818,-94.9186,2.0,31.38,11111222 
TABS,ioos:station:wmo:42043:1,2015-09-17T19:00:00Z,28.9818,-94.9186,2.0,31.16,11111222 
TABS,ioos:station:wmo:42043:1,2015-09-17T19:30:00Z,28.9818,-94.9186,2.0,31.19,11111222 
TABS,ioos:station:wmo:42043:1,2015-09-17T20:00:00Z,28.9818,-94.9186,2.0,31.13,11111222 
TABS,ioos:station:wmo:42043:1,2015-09-17T20:30:00Z,28.9818,-94.9186,2.0,30.95,11111222 
TABS,ioos:station:wmo:42043:1,2015-09-17T21:00:00Z,28.9818,-94.9186,2.0,30.95,11111222 
TABS,ioos:station:wmo:42043:1,2015-09-17T21:30:00Z,28.9818,-94.9186,2.0,31.07,11111222 
TABS,ioos:station:wmo:42043:1,2015-09-17T22:00:00Z,28.9818,-94.9186,2.0,31.14,11111222 
TABS,ioos:station:wmo:42043:1,2015-09-17T22:30:00Z,28.9818,-94.9186,2.0,31.22,11111222 
TABS,ioos:station:wmo:42043:1,2015-09-17T23:00:00Z,28.9818,-94.9186,2.0,31.41,11111222 
TABS,ioos:station:wmo:42043:1,2015-09-17T23:30:00Z,28.9818,-94.9186,2.0,31.56,11111222 
TABS,ioos:station:wmo:42043:1,2015-09-18T00:00:00Z,28.9818,-94.9186,2.0,31.64,11111222 
TABS,ioos:station:wmo:42043:1,2015-09-18T00:30:00Z,28.9818,-94.9186,2.0,31.88,11111222 
TABS,ioos:station:wmo:42043:1,2015-09-18T01:00:00Z,28.9818,-94.9186,2.0,31.88,11111222 
TABS,ioos:station:wmo:42043:1,2015-09-18T01:30:00Z,28.9818,-94.9186,2.0,32.06,11111222 
TABS,ioos:station:wmo:42043:1,2015-09-18T02:00:00Z,28.9818,-94.9186,2.0,32.4,11111222 
TABS,ioos:station:wmo:42043:1,2015-09-18T02:30:00Z,28.9818,-94.9186,2.0,32.84,11111222 
TABS,ioos:station:wmo:42043:1,2015-09-18T03:00:00Z,28.9818,-94.9186,2.0,32.96,11111222 
TABS,ioos:station:wmo:42043:1,2015-09-18T03:30:00Z,28.9818,-94.9186,2.0,33.0,11111222 
TABS,ioos:station:wmo:42043:1,2015-09-18T04:00:00Z,28.9818,-94.9186,2.0,32.21,11111222 
TABS,ioos:station:wmo:42043:1,2015-09-18T04:30:00Z,28.9818,-94.9186,2.0,32.13,11111222 
TABS,ioos:station:wmo:42043:1,2015-09-18T05:00:00Z,28.9818,-94.9186,2.0,32.28,11111222 
TABS,ioos:station:wmo:42043:1,2015-09-18T05:30:00Z,28.9818,-94.9186,2.0,32.47,11111222 
TABS,ioos:station:wmo:42043:1,2015-09-18T06:00:00Z,28.9818,-94.9186,2.0,32.66,11111222 
TABS,ioos:station:wmo:42043:1,2015-09-18T06:30:00Z,28.9818,-94.9186,2.0,32.76,11111222 
TABS,ioos:station:wmo:42043:1,2015-09-18T07:00:00Z,28.9818,-94.9186,2.0,32.79,11111222 
TABS,ioos:station:wmo:42043:1,2015-09-18T07:30:00Z,28.9818,-94.9186,2.0,32.8,11111222 
TABS,ioos:station:wmo:42043:1,2015-09-18T08:00:00Z,28.9818,-94.9186,2.0,32.81,11111222 
TABS,ioos:station:wmo:42043:1,2015-09-18T08:30:00Z,28.9818,-94.9186,2.0,32.81,11111222 
TABS,ioos:station:wmo:42043:1,2015-09-18T09:00:00Z,28.9818,-94.9186,2.0,32.76,11111222 
TABS,ioos:station:wmo:42043:1,2015-09-18T09:30:00Z,28.9818,-94.9186,2.0,32.46,11111222 
TABS,ioos:station:wmo:42043:1,2015-09-18T10:00:00Z,28.9818,-94.9186,2.0,32.45,11111222 
TABS,ioos:station:wmo:42043:1,2015-09-18T10:30:00Z,28.9818,-94.9186,2.0,32.38,11111222 
TABS,ioos:station:wmo:42043:1,2015-09-18T11:00:00Z,28.9818,-94.9186,2.0,32.3,11111222 
TABS,ioos:station:wmo:42043:1,2015-09-18T11:30:00Z,28.9818,-94.9186,2.0,32.36,11111222 
TABS,ioos:station:wmo:42043:1,2015-09-18T12:00:00Z,28.9818,-94.9186,2.0,32.13,11111222 
TABS,ioos:station:wmo:42043:1,2015-09-18T12:30:00Z,28.9818,-94.9186,2.0,32.12,11111222 
TABS,ioos:station:wmo:42043:1,2015-09-18T13:00:00Z,28.9818,-94.9186,2.0,32.19,11111222 
TABS,ioos:station:wmo:42043:1,2015-09-18T13:30:00Z,28.9818,-94.9186,2.0,32.1,11111222 
TABS,ioos:station:wmo:42043:1,2015-09-18T14:00:00Z,28.9818,-94.9186,2.0,32.16,11111222 
TABS,ioos:station:wmo:42043:1,2015-09-18T14:30:00Z,28.9818,-94.9186,2.0,31.97,11111222 
TABS,ioos:station:wmo:42043:1,2015-09-18T15:00:00Z,28.9818,-94.9186,2.0,31.64,11111222 
TABS,ioos:station:wmo:42043:1,2015-09-18T15:30:00Z,28.9818,-94.9186,2.0,31.81,11111222 
TABS,ioos:station:wmo:42043:1,2015-09-18T16:00:00Z,28.9818,-94.9186,2.0,31.75,11111222 
TABS,ioos:station:wmo:42043:1,2015-09-18T16:30:00Z,28.9818,-94.9186,2.0,31.89,11111222 
TABS,ioos:station:wmo:42043:1,2015-09-18T17:00:00Z,28.9818,-94.9186,2.0,31.96,11111222 
TABS,ioos:station:wmo:42043:1,2015-09-18T17:30:00Z,28.9818,-94.9186,2.0,31.99,11111222 
TABS,ioos:station:wmo:42043:1,2015-09-18T18:00:00Z,28.9818,-94.9186,2.0,31.97,11111222 
TABS,ioos:station:wmo:42043:1,2015-09-18T18:30:00Z,28.9818,-94.9186,2.0,31.99,11111222 
TABS,ioos:station:wmo:42043:1,2015-09-18T19:00:00Z,28.9818,-94.9186,2.0,31.94,11111222 
TABS,ioos:station:wmo:42043:1,2015-09-18T19:30:00Z,28.9818,-94.9186,2.0,32.03,11111222 
TABS,ioos:station:wmo:42043:1,2015-09-18T20:00:00Z,28.9818,-94.9186,2.0,32.04,11111222 
TABS,ioos:station:wmo:42043:1,2015-09-18T20:30:00Z,28.9818,-94.9186,2.0,32.1,11111222 
TABS,ioos:station:wmo:42043:1,2015-09-18T21:00:00Z,28.9818,-94.9186,2.0,32.41,11111222 
TABS,ioos:station:wmo:42043:1,2015-09-18T21:30:00Z,28.9818,-94.9186,2.0,33.03,11111222 
TABS,ioos:station:wmo:42043:1,2015-09-18T22:00:00Z,28.9818,-94.9186,2.0,33.18,11111222 
TABS,ioos:station:wmo:42043:1,2015-09-18T22:30:00Z,28.9818,-94.9186,2.0,33.23,11111222 
TABS,ioos:station:wmo:42043:1,2015-09-18T23:00:00Z,28.9818,-94.9186,2.0,33.26,11111222 
TABS,ioos:station:wmo:42043:1,2015-09-18T23:30:00Z,28.9818,-94.9186,2.0,33.27,11111222 
TABS,ioos:station:wmo:42043:1,2015-09-19T00:00:00Z,28.9818,-94.9186,2.0,33.35,11111222 
TABS,ioos:station:wmo:42043:1,2015-09-19T00:30:00Z,28.9818,-94.9186,2.0,33.44,11111222 
TABS,ioos:station:wmo:42043:1,2015-09-19T01:00:00Z,28.9818,-94.9186,2.0,33.59,11111222 
TABS,ioos:station:wmo:42043:1,2015-09-19T01:30:00Z,28.9818,-94.9186,2.0,33.57,11111222 
TABS,ioos:station:wmo:42043:1,2015-09-19T02:00:00Z,28.9818,-94.9186,2.0,33.5,11111222 
TABS,ioos:station:wmo:42043:1,2015-09-19T02:30:00Z,28.9818,-94.9186,2.0,33.48,11111222 
TABS,ioos:station:wmo:42043:1,2015-09-19T03:00:00Z,28.9818,-94.9186,2.0,33.49,11111222 
TABS,ioos:station:wmo:42043:1,2015-09-19T03:30:00Z,28.9818,-94.9186,2.0,33.47,11111222 
TABS,ioos:station:wmo:42043:1,2015-09-19T04:00:00Z,28.9818,-94.9186,2.0,33.48,11111222 
TABS,ioos:station:wmo:42043:1,2015-09-19T04:30:00Z,28.9818,-94.9186,2.0,33.45,11111222 
TABS,ioos:station:wmo:42043:1,2015-09-19T05:00:00Z,28.9818,-94.9186,2.0,33.46,11111222 
TABS,ioos:station:wmo:42043:1,2015-09-19T05:30:00Z,28.9818,-94.9186,2.0,33.44,11111222 
TABS,ioos:station:wmo:42043:1,2015-09-19T06:00:00Z,28.9818,-94.9186,2.0,33.44,11111222 
TABS,ioos:station:wmo:42043:1,2015-09-19T06:30:00Z,28.9818,-94.9186,2.0,33.38,11111222 
TABS,ioos:station:wmo:42043:1,2015-09-19T07:00:00Z,28.9818,-94.9186,2.0,33.32,11111222 
TABS,ioos:station:wmo:42043:1,2015-09-19T07:30:00Z,28.9818,-94.9186,2.0,33.27,11111222 
TABS,ioos:station:wmo:42043:1,2015-09-19T08:00:00Z,28.9818,-94.9186,2.0,33.15,11111222 
TABS,ioos:station:wmo:42043:1,2015-09-19T08:30:00Z,28.9818,-94.9186,2.0,33.14,11111222 
TABS,ioos:station:wmo:42043:1,2015-09-19T09:00:00Z,28.9818,-94.9186,2.0,33.13,11111222 
TABS,ioos:station:wmo:42043:1,2015-09-19T09:30:00Z,28.9818,-94.9186,2.0,33.13,11111222 
TABS,ioos:station:wmo:42043:1,2015-09-19T10:00:00Z,28.9818,-94.9186,2.0,33.13,11111222 
TABS,ioos:station:wmo:42043:1,2015-09-19T10:30:00Z,28.9818,-94.9186,2.0,33.12,11111222 
TABS,ioos:station:wmo:42043:1,2015-09-19T11:00:00Z,28.9818,-94.9186,2.0,33.1,11111222 
TABS,ioos:station:wmo:42043:1,2015-09-19T11:30:00Z,28.9818,-94.9186,2.0,33.01,11111222 
TABS,ioos:station:wmo:42043:1,2015-09-19T12:00:00Z,28.9818,-94.9186,2.0,32.93,11111222 
TABS,ioos:station:wmo:42043:1,2015-09-19T12:30:00Z,28.9818,-94.9186,2.0,32.83,11111222 
TABS,ioos:station:wmo:42043:1,2015-09-19T13:00:00Z,28.9818,-94.9186,2.0,32.81,11111222 
TABS,ioos:station:wmo:42043:1,2015-09-19T13:30:00Z,28.9818,-94.9186,2.0,32.73,11111222 
TABS,ioos:station:wmo:42043:1,2015-09-19T14:00:00Z,28.9818,-94.9186,2.0,32.75,11111222 
TABS,ioos:station:wmo:42043:1,2015-09-19T14:30:00Z,28.9818,-94.9186,2.0,32.8,11111222 
TABS,ioos:station:wmo:42043:1,2015-09-19T15:00:00Z,28.9818,-94.9186,2.0,32.71,11111222 
TABS,ioos:station:wmo:42043:1,2015-09-19T15:30:00Z,28.9818,-94.9186,2.0,32.69,11111222 
TABS,ioos:station:wmo:42043:1,2015-09-19T16:00:00Z,28.9818,-94.9186,2.0,32.76,11111222 
TABS,ioos:station:wmo:42043:1,2015-09-19T16:30:00Z,28.9818,-94.9186,2.0,32.83,11111222 
TABS,ioos:station:wmo:42043:1,2015-09-19T17:00:00Z,28.9818,-94.9186,2.0,32.85,11111222 
TABS,ioos:station:wmo:42043:1,2015-09-19T17:30:00Z,28.9818,-94.9186,2.0,32.81,11111222 
TABS,ioos:station:wmo:42043:1,2015-09-19T18:00:00Z,28.9818,-94.9186,2.0,32.31,11111222 
TABS,ioos:station:wmo:42043:1,2015-09-19T18:30:00Z,28.9818,-94.9186,2.0,32.23,11111222 
TABS,ioos:station:wmo:42043:1,2015-09-19T19:00:00Z,28.9818,-94.9186,2.0,32.19,11111222 
TABS,ioos:station:wmo:42043:1,2015-09-19T19:30:00Z,28.9818,-94.9186,2.0,31.95,11111222 
TABS,ioos:station:wmo:42043:1,2015-09-19T20:00:00Z,28.9818,-94.9186,2.0,31.75,11111222 
TABS,ioos:station:wmo:42043:1,2015-09-19T20:30:00Z,28.9818,-94.9186,2.0,31.77,11111222 
TABS,ioos:station:wmo:42043:1,2015-09-19T21:00:00Z,28.9818,-94.9186,2.0,31.69,11111222 
TABS,ioos:station:wmo:42043:1,2015-09-19T21:30:00Z,28.9818,-94.9186,2.0,31.93,11111222 
TABS,ioos:station:wmo:42043:1,2015-09-19T22:00:00Z,28.9818,-94.9186,2.0,32.0,11111222 
TABS,ioos:station:wmo:42043:1,2015-09-19T22:30:00Z,28.9818,-94.9186,2.0,31.98,11111222 
TABS,ioos:station:wmo:42043:1,2015-09-19T23:00:00Z,28.9818,-94.9186,2.0,31.93,11111222 
TABS,ioos:station:wmo:42043:1,2015-09-19T23:30:00Z,28.9818,-94.9186,2.0,31.87,11111222 
TABS,ioos:station:wmo:42043:1,2015-09-20T00:00:00Z,28.9818,-94.9186,2.0,31.75,11111222 
TABS,ioos:station:wmo:42043:1,2015-09-20T00:30:00Z,28.9818,-94.9186,2.0,31.71,11111222 
TABS,ioos:station:wmo:42043:1,2015-09-20T01:00:00Z,28.9818,-94.9186,2.0,31.64,11111222 
TABS,ioos:station:wmo:42043:1,2015-09-20T01:30:00Z,28.9818,-94.9186,2.0,31.62,11111222 
TABS,ioos:station:wmo:42043:1,2015-09-20T02:00:00Z,28.9818,-94.9186,2.0,31.61,11111222 
TABS,ioos:station:wmo:42043:1,2015-09-20T02:30:00Z,28.9818,-94.9186,2.0,31.67,11111222 
TABS,ioos:station:wmo:42043:1,2015-09-20T03:00:00Z,28.9818,-94.9186,2.0,31.95,11111222 
TABS,ioos:station:wmo:42043:1,2015-09-20T03:30:00Z,28.9818,-94.9186,2.0,31.92,11111222 
TABS,ioos:station:wmo:42043:1,2015-09-20T04:00:00Z,28.9818,-94.9186,2.0,31.97,11111222 
TABS,ioos:station:wmo:42043:1,2015-09-20T04:30:00Z,28.9818,-94.9186,2.0,31.95,11111222 
TABS,ioos:station:wmo:42043:1,2015-09-20T05:00:00Z,28.9818,-94.9186,2.0,31.95,11111222 
TABS,ioos:station:wmo:42043:1,2015-09-20T05:30:00Z,28.9818,-94.9186,2.0,31.96,11111222 
TABS,ioos:station:wmo:42043:1,2015-09-20T06:00:00Z,28.9818,-94.9186,2.0,31.98,11111222 
TABS,ioos:station:wmo:42043:1,2015-09-20T06:30:00Z,28.9818,-94.9186,2.0,31.94,11111222 
TABS,ioos:station:wmo:42043:1,2015-09-20T07:00:00Z,28.9818,-94.9186,2.0,31.95,11111222 
TABS,ioos:station:wmo:42043:1,2015-09-20T07:30:00Z,28.9818,-94.9186,2.0,31.88,11111222 
TABS,ioos:station:wmo:42043:1,2015-09-20T08:00:00Z,28.9818,-94.9186,2.0,31.85,11111222 
TABS,ioos:station:wmo:42043:1,2015-09-20T08:30:00Z,28.9818,-94.9186,2.0,31.83,11111222 
TABS,ioos:station:wmo:42043:1,2015-09-20T09:00:00Z,28.9818,-94.9186,2.0,31.81,11111222 
TABS,ioos:station:wmo:42043:1,2015-09-20T09:30:00Z,28.9818,-94.9186,2.0,31.81,11111222 
TABS,ioos:station:wmo:42043:1,2015-09-20T10:00:00Z,28.9818,-94.9186,2.0,31.78,11111222 
TABS,ioos:station:wmo:42043:1,2015-09-20T10:30:00Z,28.9818,-94.9186,2.0,31.75,11111222 
TABS,ioos:station:wmo:42043:1,2015-09-20T11:00:00Z,28.9818,-94.9186,2.0,31.74,11111222 
TABS,ioos:station:wmo:42043:1,2015-09-20T11:30:00Z,28.9818,-94.9186,2.0,31.69,11111222 
TABS,ioos:station:wmo:42043:1,2015-09-20T12:00:00Z,28.9818,-94.9186,2.0,31.62,11111222 
TABS,ioos:station:wmo:42043:1,2015-09-20T12:30:00Z,28.9818,-94.9186,2.0,31.58,11111222 
TABS,ioos:station:wmo:42043:1,2015-09-20T13:00:00Z,28.9818,-94.9186,2.0,31.58,11111222 
TABS,ioos:station:wmo:42043:1,2015-09-20T13:30:00Z,28.9818,-94.9186,2.0,31.55,11111222 
TABS,ioos:station:wmo:42043:1,2015-09-20T14:00:00Z,28.9818,-94.9186,2.0,31.47,11111222 
TABS,ioos:station:wmo:42043:1,2015-09-20T14:30:00Z,28.9818,-94.9186,2.0,31.54,11111222 
TABS,ioos:station:wmo:42043:1,2015-09-20T15:00:00Z,28.9818,-94.9186,2.0,31.48,11111222 
TABS,ioos:station:wmo:42043:1,2015-09-20T15:30:00Z,28.9818,-94.9186,2.0,31.51,11111222 
TABS,ioos:station:wmo:42043:1,2015-09-20T16:00:00Z,28.9818,-94.9186,2.0,31.47,11111222 
TABS,ioos:station:wmo:42043:1,2015-09-20T16:30:00Z,28.9818,-94.9186,2.0,30.82,11111222 
TABS,ioos:station:wmo:42043:1,2015-09-20T17:00:00Z,28.9818,-94.9186,2.0,30.68,11111222 